Regional Weather Roundup
Issued by NWS

Home | Current Version | Previous Version | Text Only | Print | Product List | Glossary On
Versions: 1 2 3 4 5 6 7 8 9 10 11 12 13 14 15 16 17 18 19 20 21 22 23 24 25 26 27 28 29 30 31 32 33 34 35 36 37 38 39 40 41 42 43 44 45 46 47 48 49 50
081
ASUS43 KOAX 270903
RWRNE

WEATHER ROUNDUP FOR NEBRASKA
NATIONAL WEATHER SERVICE OMAHA NE
400 AM CDT SUN MAY 27 2018

NOTES: SATELLITE DATA IS BEING USED TO AUGMENT CLOUD COVER ABOVE
       12000 FEET.
       "FAIR" INDICATES FEW OR NO CLOUDS BELOW 12,000 FEET WITH NO
       SIGNIFICANT WEATHER AND/OR OBSTRUCTIONS TO VISIBILITY.


NEZ001>004-019>022-054>056-271000-
NEBRASKA PANHANDLE

CITY           SKY/WX    TMP DP  RH WIND       PRES   REMARKS
SCOTTSBLUFF    CLOUDY    71  51  49 SE10      29.75R
ALLIANCE       CLOUDY    67  49  52 S14       29.77R
CHADRON        CLOUDY    75  47  36 S16G28    29.69R
GORDON         FAIR      74  48  40 S13       29.76S
KIMBALL        CLOUDY    67  51  56 S12       29.82S
SIDNEY         MOCLDY    69  49  48 S15       29.81S
$$

NEZ057>060-069>072-079>082-271000-
SOUTHWEST NEBRASKA

CITY           SKY/WX    TMP DP  RH WIND       PRES   REMARKS
NORTH PLATTE   CLOUDY    73  55  53 S9        29.83R
IMPERIAL       CLOUDY    70  53  54 SE13      29.82R
LEXINGTON      CLOUDY    72  55  55 S12       29.84S
MCCOOK         MOCLDY    71  56  58 S9        29.83R
OGALLALA       MOCLDY    70  52  53 S15G21    29.79S
$$

NEZ005>010-023>029-035>040-094-271000-
NORTH CENTRAL NEBRASKA

CITY           SKY/WX    TMP DP  RH WIND       PRES   REMARKS
VALENTINE      CLOUDY    77  53  43 S18       29.76R
AINSWORTH      MOCLDY    65  58  75 S10       29.79S
BROKEN BOW     MOCLDY    72  55  55 S8        29.83R
O`NEILL        MOCLDY    71  60  68 S5        29.80R
ORD            MOCLDY    68  57  68 SW10      29.80R
THEDFORD       CLOUDY    70  54  56 S12       29.83R
$$

NEZ041-046>049-061>064-073>077-083>087-271000-
SOUTH CENTRAL NEBRASKA

CITY           SKY/WX    TMP DP  RH WIND       PRES   REMARKS
GRAND ISLAND   PTCLDY    75  57  53 SW13      29.82R
AURORA         CLEAR     70  58  65 SW8       29.81S
HASTINGS       PTCLDY    74  58  57 S8        29.84R
HEBRON         MOCLDY    74  60  63 SW8       29.82S
HOLDREGE       MOCLDY    72  58  61 S13       29.84S
KEARNEY        CLOUDY    72  58  61 SW10      29.84R
YORK           CLEAR     72  59  64 SW7       29.81S
$$

NEZ011>018-030>034-042>045-271000-
NORTHEAST NEBRASKA

CITY           SKY/WX    TMP DP  RH WIND       PRES   REMARKS
NORFOLK        CLEAR     64  59  83 CALM      29.78S
ALBION         PTCLDY    74  59  58 CALM      29.80S
BLAIR          CLEAR     77  58  52 S5        29.80S
COLUMBUS       CLEAR     68  59  73 CALM      29.80S
FREMONT        CLEAR     74  60  61 CALM      29.79S
TEKAMAH        CLEAR     68  62  81 S5        29.78R
WAYNE          CLEAR     66  61  83 CALM      29.78S
$$

NEZ050>053-065>068-078-088>093-271000-
SOUTHEAST NEBRASKA

CITY           SKY/WX    TMP DP  RH WIND       PRES   REMARKS
LINCOLN        CLEAR     70  61  73 S5        29.80S
OMAHA EPPLEY   CLEAR     72  63  73 CALM      29.79R
BEATRICE       CLEAR     75  64  67 S6        29.82R
FALLS CITY     CLEAR     75  63  66 SW5       29.80R
NEBRASKA CITY  CLEAR     74  62  65 W9        29.81S
PLATTSMOUTH    PTCLDY    82  58  44 SW7       29.81R
$$

NEZ044-045-051>053-067-271000-
OMAHA AREA

CITY           SKY/WX    TMP DP  RH WIND       PRES   REMARKS
OMAHA EPPLEY   CLEAR     72  63  73 CALM      29.79R
BLAIR          CLEAR     77  58  52 S5        29.80S
FREMONT        CLEAR     74  60  61 CALM      29.79S
MILLARD        CLEAR     70  64  79 CALM      29.79S
OFFUTT AFB     PTCLDY    65  62  89 CALM      29.78R
PLATTSMOUTH    PTCLDY    82  58  44 SW7       29.81R
WAHOO          FAIR      71  57  62 S8        29.80R
$$




USA.gov is the U.S. government's official web portal to all federal, state and local government web resources and services.